Friendship, ME

3:57 AM EST on February 14, 2016 (GMT -0500)
Knox County Regional

Weather History for KRKD - January, 2012

Change the Weather History Date:

Sunday, January 29, 2012

  Actual Average Record
Temperature  
Mean Temperature 36 °F -  
Max Temperature 39 °F 28 °F 39 °F (2002)
Min Temperature 33 °F 13 °F 0 °F (2005)
Degree Days  
Heating Degree Days 29    
Moisture  
Dew Point 18 °F    
Average Humidity 50    
Maximum Humidity 70    
Minimum Humidity 36    
Precipitation  
Precipitation 0.00 in - - ()
Sea Level Pressure  
Sea Level Pressure 29.89 in    
Wind  
Wind Speed 14 mph (WSW)    
Max Wind Speed 25 mph    
Max Gust Speed 32 mph    
Visibility 10 miles    
Events      
Averages and records for this station are not official NWS values.
T = Trace of Precipitation, MM = Missing Value Source: NWS Daily Summary

Daily Weather History Graph

Daily Weather History Graph

Search for Another Location

Airport or City:

Trip Planner

Search our weather history database for the weather conditions in past years. The results will help you decide how hot, cold, wet, or windy it might be!

Date:

Astronomy

Jan. 29, 2012 Rise Set
Actual Time 6:57 AM EST 4:41 PM EST
Civil Twilight 6:26 AM EST 5:12 PM EST
Nautical Twilight 5:51 AM EST 5:47 PM EST
Astronomical Twilight 5:17 AM EST 6:21 PM EST
Moon 9:30 AM EST (1/29) 11:41 PM EST (1/29)
Length of Visible Light 10h 46m
Length of Day
9h 44m
Waxing Crescent, 36% of the Moon is Illuminated
Jan 29
Waxing Crescent
Jan 30
First Quarter
Feb 7
Full
Feb 14
Last Quarter
Feb 21
New

Hourly Weather History & Observations

Time (EST) Temp. Windchill Dew Point Humidity Pressure Visibility Wind Dir Wind Speed Gust Speed Precip Events Conditions
12:15 AM 39.2 °F 32.5 °F 30.2 °F 70% 29.75 in 10.0 mi SW 10.4 mph 19.6 mph N/A   Clear
12:35 AM 39.2 °F 32.0 °F 30.2 °F 70% 29.75 in 10.0 mi SW 11.5 mph 19.6 mph N/A   Clear
12:55 AM 39.2 °F 31.6 °F 30.2 °F 70% 29.75 in 10.0 mi WSW 12.7 mph 18.4 mph N/A   Partly Cloudy
1:15 AM 39.2 °F 30.5 °F 30.2 °F 70% 29.75 in 10.0 mi SW 16.1 mph 26.5 mph N/A   Mostly Cloudy
1:35 AM 39.2 °F 31.2 °F 30.2 °F 70% 29.75 in 10.0 mi WSW 13.8 mph 23.0 mph N/A   Mostly Cloudy
1:55 AM 37.4 °F 28.2 °F 28.4 °F 70% 29.75 in 10.0 mi WSW 16.1 mph 20.7 mph N/A   Mostly Cloudy
2:15 AM 37.4 °F 28.9 °F 28.4 °F 70% 29.76 in 10.0 mi WSW 13.8 mph 21.9 mph N/A   Mostly Cloudy
2:35 AM 37.4 °F 28.9 °F 26.6 °F 65% 29.77 in 10.0 mi WSW 13.8 mph - N/A   Partly Cloudy
2:55 AM 37.4 °F 28.9 °F 26.6 °F 65% 29.77 in 10.0 mi West 13.8 mph - N/A   Mostly Cloudy
3:16 AM 35.6 °F 26.6 °F 26.6 °F 70% 29.77 in 10.0 mi WSW 13.8 mph 18.4 mph N/A   Scattered Clouds
3:35 AM 35.6 °F 26.2 °F 24.8 °F 65% 29.77 in 10.0 mi WSW 15.0 mph - N/A   Clear
3:55 AM 35.6 °F 25.9 °F 24.8 °F 65% 29.78 in 10.0 mi WSW 16.1 mph 20.7 mph N/A   Clear
4:15 AM 35.6 °F 25.5 °F 23.0 °F 60% 29.79 in 10.0 mi West 17.3 mph 26.5 mph N/A   Clear
4:35 AM 35.6 °F 25.2 °F 23.0 °F 60% 29.79 in 10.0 mi WSW 18.4 mph 26.5 mph N/A   Clear
5:15 AM 35.6 °F 27.1 °F 21.2 °F 56% 29.81 in 10.0 mi West 12.7 mph - N/A   Clear
5:35 AM 35.6 °F 25.9 °F 21.2 °F 56% 29.82 in 10.0 mi WSW 16.1 mph 21.9 mph N/A   Clear
5:55 AM 33.8 °F 23.9 °F 19.4 °F 56% 29.83 in 10.0 mi WSW 15.0 mph 21.9 mph N/A   Clear
6:15 AM 33.8 °F 24.3 °F 19.4 °F 56% 29.85 in 10.0 mi WSW 13.8 mph 23.0 mph N/A   Clear
6:56 AM 33.8 °F 23.9 °F 17.6 °F 52% 29.87 in 10.0 mi West 15.0 mph 20.7 mph N/A   Clear
7:15 AM 33.8 °F 23.5 °F 17.6 °F 52% 29.88 in 10.0 mi West 16.1 mph - N/A   Clear
7:35 AM 33.8 °F 24.3 °F 17.6 °F 52% 29.90 in 10.0 mi West 13.8 mph 19.6 mph N/A   Clear
7:55 AM 33.8 °F 23.5 °F 19.4 °F 56% 29.91 in 10.0 mi West 16.1 mph - N/A   Clear
8:15 AM 33.8 °F 23.2 °F 17.6 °F 52% 29.91 in 10.0 mi West 17.3 mph 24.2 mph N/A   Clear
8:35 AM 33.8 °F 23.5 °F 17.6 °F 52% 29.92 in 10.0 mi West 16.1 mph 19.6 mph N/A   Clear
8:55 AM 35.6 °F 26.6 °F 17.6 °F 48% 29.93 in 10.0 mi WSW 13.8 mph 19.6 mph N/A   Clear
9:15 AM 35.6 °F 25.5 °F 15.8 °F 44% 29.94 in 10.0 mi West 17.3 mph 32.2 mph N/A   Clear
9:35 AM 35.6 °F 25.5 °F 15.8 °F 44% 29.94 in 10.0 mi West 17.3 mph 24.2 mph N/A   Clear
9:55 AM 35.6 °F 23.4 °F 14.0 °F 41% 29.94 in 10.0 mi West 25.3 mph 31.1 mph N/A   Clear
10:15 AM 35.6 °F 25.5 °F 15.8 °F 44% 29.95 in 10.0 mi West 17.3 mph 26.5 mph N/A   Clear
10:35 AM 35.6 °F 25.5 °F 14.0 °F 41% 29.94 in 10.0 mi West 17.3 mph 26.5 mph N/A   Clear
10:55 AM 37.4 °F 27.2 °F 14.0 °F 38% 29.95 in 10.0 mi West 19.6 mph 24.2 mph N/A   Clear
11:15 AM 37.4 °F 27.5 °F 12.2 °F 36% 29.94 in 10.0 mi West 18.4 mph 27.6 mph N/A   Clear
11:35 AM 37.4 °F 27.8 °F 14.0 °F 38% 29.94 in 10.0 mi West 17.3 mph 26.5 mph N/A   Clear
11:55 AM 37.4 °F 26.6 °F 12.2 °F 36% 29.93 in 10.0 mi West 21.9 mph 26.5 mph N/A   Clear
12:15 PM 37.4 °F 28.5 °F 12.2 °F 36% 29.93 in 10.0 mi West 15.0 mph 28.8 mph N/A   Clear
12:35 PM 37.4 °F 28.2 °F 14.0 °F 38% 29.92 in 10.0 mi West 16.1 mph 24.2 mph N/A   Clear
12:55 PM 37.4 °F 26.9 °F 14.0 °F 38% 29.91 in 10.0 mi WSW 20.7 mph 28.8 mph N/A   Clear
1:16 PM 37.4 °F 27.2 °F 14.0 °F 38% 29.91 in 10.0 mi WSW 19.6 mph 25.3 mph N/A   Clear
1:35 PM 37.4 °F 28.2 °F 17.6 °F 45% 29.91 in 10.0 mi WSW 16.1 mph - N/A   Clear
1:55 PM 37.4 °F 27.5 °F 15.8 °F 41% 29.91 in 10.0 mi West 18.4 mph 21.9 mph N/A   Clear
2:15 PM 37.4 °F 27.5 °F 15.8 °F 41% 29.91 in 10.0 mi WSW 18.4 mph 23.0 mph N/A   Clear
2:35 PM 37.4 °F 28.5 °F 15.8 °F 41% 29.92 in 10.0 mi WSW 15.0 mph 27.6 mph N/A   Clear
2:55 PM 37.4 °F 28.2 °F 12.2 °F 36% 29.92 in 10.0 mi WSW 16.1 mph 25.3 mph N/A   Clear
3:15 PM 37.4 °F 27.8 °F 12.2 °F 36% 29.92 in 10.0 mi West 17.3 mph 24.2 mph N/A   Clear
3:35 PM 37.4 °F 29.3 °F 14.0 °F 38% 29.92 in 10.0 mi West 12.7 mph 19.6 mph N/A   Clear
3:55 PM 37.4 °F 29.8 °F 12.2 °F 36% 29.93 in 10.0 mi WSW 11.5 mph - N/A   Clear
4:15 PM 37.4 °F 30.3 °F 12.2 °F 36% 29.93 in 10.0 mi WSW 10.4 mph - N/A   Clear
4:35 PM 35.6 °F 29.9 °F 12.2 °F 38% 29.94 in 10.0 mi WSW 6.9 mph - N/A   Clear
5:15 PM 35.6 °F 30.7 °F 12.2 °F 38% 29.95 in 10.0 mi SW 5.8 mph - N/A   Clear
5:35 PM 35.6 °F 30.7 °F 14.0 °F 41% 29.95 in 10.0 mi WSW 5.8 mph - N/A   Clear
5:55 PM 33.8 °F 28.6 °F 14.0 °F 44% 29.96 in 10.0 mi WSW 5.8 mph - N/A   Clear
6:15 PM 33.8 °F 27.7 °F 15.8 °F 48% 29.95 in 10.0 mi WSW 6.9 mph - N/A   Clear
6:35 PM 33.8 °F 27.0 °F 15.8 °F 48% 29.96 in 10.0 mi WSW 8.1 mph - N/A   Clear
6:55 PM 33.8 °F 29.6 °F 15.8 °F 48% 29.96 in 10.0 mi WSW 4.6 mph - N/A   Clear
7:15 PM 33.8 °F 29.6 °F 15.8 °F 48% 29.96 in 10.0 mi SW 4.6 mph - N/A   Clear
7:35 PM 33.8 °F 28.6 °F 15.8 °F 48% 29.96 in 10.0 mi SW 5.8 mph - N/A   Clear
7:55 PM 33.8 °F 27.7 °F 17.6 °F 52% 29.96 in 10.0 mi SW 6.9 mph - N/A   Clear
8:15 PM 33.8 °F 27.0 °F 17.6 °F 52% 29.96 in 10.0 mi WSW 8.1 mph - N/A   Clear
8:35 PM 33.8 °F 27.0 °F 17.6 °F 52% 29.96 in 10.0 mi WSW 8.1 mph - N/A   Clear
8:55 PM 33.8 °F 26.4 °F 17.6 °F 52% 29.96 in 10.0 mi WSW 9.2 mph - N/A   Clear
9:15 PM 33.8 °F 27.7 °F 17.6 °F 52% 29.96 in 10.0 mi WSW 6.9 mph - N/A   Clear
9:35 PM 33.8 °F 28.6 °F 17.6 °F 52% 29.95 in 10.0 mi WSW 5.8 mph - N/A   Clear
9:55 PM 32.0 °F 27.5 °F 17.6 °F 55% 29.95 in 10.0 mi West 4.6 mph - N/A   Clear
10:15 PM 32.0 °F 27.5 °F 17.6 °F 55% 29.95 in 10.0 mi SW 4.6 mph - N/A   Clear
10:35 PM 32.0 °F 27.5 °F 17.6 °F 55% 29.95 in 10.0 mi West 4.6 mph - N/A   Clear
10:55 PM 30.2 °F 25.4 °F 17.6 °F 60% 29.95 in 10.0 mi West 4.6 mph - N/A   Clear
11:15 PM 28.4 °F 21.2 °F 17.6 °F 64% 29.95 in 10.0 mi West 6.9 mph - N/A   Clear
11:35 PM 30.2 °F 23.4 °F 19.4 °F 64% 29.95 in 10.0 mi West 6.9 mph - N/A   Clear
11:55 PM 30.2 °F 24.3 °F 17.6 °F 60% 29.95 in 10.0 mi West 5.8 mph - N/A   Clear